DW8545 Weather Reports


time (UTC)temp
F
wind
direction
speed
knots
gust
knots
rain 1hr
in
rain 24hr
in
rain mn
in
humidity
%
barometer
mb
20260505035012 46 0 0.0 0.0 0.00 0.00 0.00 41 1013.7
20260505034531 46 0 0.0 0.0 0.00 0.00 0.00 39 1013.6
20260505034010 46 0 0.0 0.0 0.00 0.00 0.00 40 1013.5
20260505033513 47 0 0.0 0.0 0.00 0.00 0.00 39 1013.5
20260505033030 47 0 0.0 0.0 0.00 0.00 0.00 39 1013.6
20260505032510 47 0 0.0 0.0 0.00 0.00 0.00 39 1013.6
20260505032011 47 0 0.0 0.0 0.00 0.00 0.00 37 1013.5
20260505031532 48 0 0.0 0.0 0.00 0.00 0.00 38 1013.4
20260505031012 48 0 0.0 1.7 0.00 0.00 0.00 37 1013.3
20260505030512 48 0 0.0 1.7 0.00 0.00 0.00 37 1013.3
20260505030031 49 0 0.0 0.0 0.00 0.00 0.00 36 1013.4
20260505025515 49 0 0.0 0.0 0.00 0.00 0.00 35 1013.4
20260505025011 50 0 0.0 0.0 0.00 0.00 0.00 35 1013.3
20260505024532 50 0 0.0 0.0 0.00 0.00 0.00 34 1013.3
20260505024011 51 0 0.0 0.0 0.00 0.00 0.00 34 1013.2
20260505023512 51 0 0.0 0.0 0.00 0.00 0.00 35 1013.2
20260505023030 51 0 0.0 0.0 0.00 0.00 0.00 33 1013.2
20260505022513 51 0 0.0 1.7 0.00 0.00 0.00 34 1013.2
20260505022010 52 0 0.0 1.7 0.00 0.00 0.00 33 1013.3
20260505021530 52 0 0.0 1.7 0.00 0.00 0.00 32 1013.4
20260505021010 53 0 0.0 1.7 0.00 0.00 0.00 32 1013.4
20260505020512 53 0 0.0 0.9 0.00 0.00 0.00 31 1013.3
20260505020032 54 271 0.0 1.7 0.00 0.00 0.00 31 1013.3
20260505015513 54 271 0.0 1.7 0.00 0.00 0.00 31 1013.3
20260505015014 55 0 0.0 0.0 0.00 0.00 0.00 30 1013.3
20260505014532 55 0 0.0 1.7 0.00 0.00 0.00 29 1013.1
20260505014017 56 0 0.0 1.7 0.00 0.00 0.00 28 1013.1
20260505013510 56 0 0.0 0.0 0.00 0.00 0.00 28 1013.1
20260505013031 57 0 0.0 0.0 0.00 0.00 0.00 27 1013.2
20260505012514 57 0 0.0 1.7 0.00 0.00 0.00 26 1013.2
20260505012014 57 0 0.0 1.7 0.00 0.00 0.00 26 1013.2
20260505011532 57 271 0.0 1.7 0.00 0.00 0.00 26 1013.4
20260505011010 58 271 0.0 1.7 0.00 0.00 0.00 26 1013.3
20260505010512 58 0 0.0 1.7 0.00 0.00 0.00 25 1013.4
20260505010030 58 0 0.0 1.7 0.00 0.00 0.00 26 1013.4
20260505005513 58 271 0.0 2.6 0.00 0.00 0.00 25 1013.5
20260505005012 58 271 0.0 3.5 0.00 0.00 0.00 26 1013.5
20260505004530 58 271 0.9 3.5 0.00 0.00 0.00 25 1013.5
20260505004012 59 281 0.0 1.7 0.00 0.00 0.00 26 1013.5
20260505003511 59 281 0.0 1.7 0.00 0.00 0.00 24 1013.5
20260505003031 59 281 0.0 2.6 0.00 0.00 0.00 24 1013.6
20260505002512 59 281 0.0 2.6 0.00 0.00 0.00 25 1013.7
20260505002014 59 281 0.9 2.6 0.00 0.00 0.00 24 1013.5
20260505001532 59 281 0.9 2.6 0.00 0.00 0.00 24 1013.8
20260505001013 59 268 0.0 1.7 0.00 0.00 0.00 23 1013.9
20260505000513 59 268 0.0 1.7 0.00 0.00 0.00 24 1013.8
20260505000030 59 268 0.9 2.6 0.00 0.00 0.00 24 1013.8
20260504235513 59 268 0.9 2.6 0.00 0.00 0.00 23 1013.9
20260504235012 59 265 0.9 2.6 0.00 0.00 0.00 23 1014.0
20260504234534 59 268 0.9 2.6 0.00 0.00 0.00 23 1013.9
20260504234010 59 232 0.9 5.2 0.00 0.00 0.00 26 1014.0
20260504233510 59 229 1.7 5.2 0.00 0.00 0.00 23 1014.1
20260504233033 60 275 1.7 4.3 0.00 0.00 0.00 23 1014.2
20260504232512 60 267 0.0 6.1 0.00 0.00 0.00 24 1014.1
20260504232012 60 266 1.7 7.0 0.00 0.00 0.00 22 1014.3
20260504231530 60 282 2.6 7.0 0.00 0.00 0.00 21 1014.1
20260504231012 60 281 0.9 6.1 0.00 0.00 0.00 23 1014.3
20260504230511 60 277 1.7 9.6 0.00 0.00 0.00 22 1014.2
20260504230034 60 281 1.7 9.6 0.00 0.00 0.00 24 1014.3
20260504225516 60 276 2.6 9.6 0.00 0.00 0.00 23 1014.3
20260504225012 61 269 1.7 7.8 0.00 0.00 0.00 24 1014.3
20260504224529 61 269 2.6 7.8 0.00 0.00 0.00 25 1014.3
20260504224013 61 283 1.7 5.2 0.00 0.00 0.00 27 1014.3
20260504223511 61 263 0.9 4.3 0.00 0.00 0.00 27 1014.3
20260504223029 61 250 1.7 6.1 0.00 0.00 0.00 29 1014.3
20260504222511 61 275 1.7 6.1 0.00 0.00 0.00 28 1014.4
20260504222011 61 269 1.7 6.1 0.00 0.00 0.00 27 1014.3
20260504221531 60 270 2.6 6.1 0.00 0.00 0.00 27 1014.3
20260504221012 60 270 1.7 7.8 0.00 0.00 0.00 29 1014.3
20260504220515 60 300 1.7 7.8 0.00 0.00 0.00 29 1014.4
20260504220034 60 273 2.6 7.8 0.00 0.00 0.00 31 1014.6
20260504215513 60 265 1.7 8.7 0.00 0.00 0.00 31 1014.5
20260504215012 60 281 3.5 8.7 0.00 0.00 0.00 31 1014.6
20260504214530 60 273 1.7 15.6 0.00 0.00 0.00 30 1014.5
20260504214012 60 283 3.5 15.6 0.00 0.00 0.00 30 1014.6
20260504213512 60 268 0.9 6.1 0.00 0.00 0.00 28 1014.5
20260504213032 60 279 1.7 6.1 0.00 0.00 0.00 29 1014.8
20260504212513 60 0 1.7 8.7 0.00 0.00 0.00 30 1015.0
20260504212013 60 266 2.6 8.7 0.00 0.00 0.00 28 1015.0
20260504211533 60 256 1.7 7.8 0.00 0.00 0.00 30 1015.2
20260504211013 60 279 2.6 7.8 0.00 0.00 0.00 30 1015.2
20260504210510 60 275 2.6 10.4 0.00 0.00 0.00 30 1015.2
20260504210040 60 281 2.6 10.4 0.00 0.00 0.00 31 1015.2
20260504205512 60 265 0.9 6.1 0.00 0.00 0.00 30 1015.1
20260504205013 59 320 0.9 7.0 0.00 0.00 0.00 33 1015.2
20260504204533 59 281 1.7 8.7 0.00 0.00 0.00 34 1015.4
20260504204016 59 280 2.6 8.7 0.00 0.00 0.00 31 1015.4
20260504203513 59 302 3.5 8.7 0.00 0.00 0.00 33 1015.4
20260504203049 59 284 1.7 7.0 0.00 0.00 0.00 35 1015.5
20260504202511 59 324 3.5 7.0 0.00 0.00 0.00 35 1015.5
20260504202010 59 283 2.6 6.1 0.00 0.00 0.00 36 1015.7
20260504201532 59 292 2.6 5.2 0.00 0.00 0.00 36 1015.7
20260504201018 59 289 1.7 5.2 0.00 0.00 0.00 35 1015.6
20260504200513 59 281 2.6 5.2 0.00 0.00 0.00 37 1015.8
20260504200032 60 248 1.7 5.2 0.00 0.00 0.00 36 1015.8
20260504195513 59 265 0.9 5.2 0.00 0.00 0.00 36 1015.7
20260504195013 59 276 1.7 5.2 0.00 0.00 0.00 37 1015.8
20260504194533 59 273 0.9 7.0 0.00 0.00 0.00 37 1016.0
20260504194013 59 248 1.7 7.0 0.00 0.00 0.00 38 1016.3
20260504193516 59 304 1.7 6.1 0.00 0.00 0.00 41 1016.2
20260504193030 59 273 2.6 7.8 0.00 0.00 0.00 39 1016.3
20260504192513 59 279 1.7 7.8 0.00 0.00 0.00 40 1016.2
20260504192010 59 290 1.7 7.8 0.00 0.00 0.00 40 1016.0
20260504191532 59 244 1.7 7.8 0.00 0.00 0.00 40 1016.2
20260504191014 59 290 2.6 7.8 0.00 0.00 0.00 40 1016.4
20260504190514 58 284 2.6 7.8 0.00 0.00 0.00 41 1016.5
20260504190030 58 265 2.6 7.8 0.00 0.00 0.00 40 1016.4
20260504185512 58 279 0.9 7.0 0.00 0.00 0.00 43 1016.3
20260504185010 58 268 0.9 9.6 0.00 0.00 0.00 46 1016.5
20260504184534 57 269 0.9 9.6 0.00 0.00 0.00 42 1016.5
20260504184013 58 316 1.7 7.0 0.00 0.00 0.00 44 1016.5
20260504183514 58 50 0.9 4.3 0.00 0.00 0.00 42 1016.6
20260504183033 57 280 1.7 3.5 0.00 0.00 0.00 44 1016.5
20260504182523 57 271 0.9 2.6 0.00 0.00 0.00 43 1016.6
20260504182018 57 271 0.9 6.1 0.00 0.00 0.00 42 1016.6
20260504181529 57 288 1.7 6.1 0.00 0.00 0.00 45 1016.6
20260504181010 57 270 0.9 6.1 0.00 0.00 0.00 44 1016.6
20260504180509 57 268 0.9 6.1 0.00 0.00 0.00 45 1016.8
20260504180032 56 282 1.7 6.1 0.00 0.00 0.00 48 1017.0
20260504175558 56 309 0.9 9.6 0.00 0.00 0.00 46 1017.0
20260504175013 56 0 1.7 9.6 0.00 0.00 0.00 49 1017.0
20260504174528 56 278 1.7 7.8 0.00 0.00 0.00 47 1017.1
20260504174013 56 281 0.9 6.1 0.00 0.00 0.00 47 1017.0
20260504173512 56 295 1.7 6.1 0.00 0.00 0.00 46 1016.9
20260504173030 56 242 0.9 3.5 0.00 0.00 0.00 48 1017.1
20260504172512 56 280 0.9 3.5 0.00 0.00 0.00 47 1017.1
20260504172011 55 282 0.9 5.2 0.00 0.00 0.00 48 1017.1
20260504171532 55 246 1.7 7.8 0.00 0.00 0.00 47 1017.0
20260504171018 55 276 1.7 7.8 0.00 0.00 0.00 47 1017.0
20260504170516 55 281 0.9 5.2 0.00 0.00 0.00 51 1017.0
20260504151017 51 53 0.0 1.7 0.00 0.00 0.00 60 1017.1
20260504150511 51 53 0.9 1.7 0.00 0.00 0.00 58 1017.0
20260504141013 47 53 0.0 1.7 0.00 0.00 0.00 70 1017.1
20260504140516 47 0 0.0 1.7 0.00 0.00 0.00 71 1017.2
20260504130513 44 0 0.0 0.0 0.00 0.00 0.00 74 1016.3
20260504110511 44 0 0.0 0.0 0.00 0.00 0.00 73 1016.0
20260504100514 45 53 0.0 1.7 0.00 0.00 0.00 72 1016.5
20260504081534 47 53 0.0 1.7 0.00 0.00 0.00 68 1017.5
20260504081010 48 53 0.0 1.7 0.00 0.00 0.00 67 1017.4
20260504080512 48 53 0.0 1.7 0.00 0.00 0.00 68 1017.4
20260504050514 51 0 0.0 1.7 0.00 0.00 0.00 53 1017.6
20260504045509 52 66 0.0 2.6 0.00 0.00 0.00 52 1017.5
20260504045013 52 66 0.0 1.7 0.00 0.00 0.00 53 1017.7
20260504044532 52 66 0.0 1.7 0.00 0.00 0.00 53 1018.0
20260504044012 53 66 0.0 1.7 0.00 0.00 0.00 50 1018.2
20260504043511 53 66 0.0 1.7 0.00 0.00 0.00 50 1018.3
20260504043031 53 66 0.0 1.7 0.00 0.00 0.00 48 1018.3
20260504042510 54 0 0.0 1.7 0.00 0.00 0.00 47 1018.5
20260504042011 54 0 0.0 1.7 0.00 0.00 0.00 46 1018.7
20260504041530 54 66 0.0 1.7 0.00 0.00 0.00 46 1018.6
20260504041012 54 66 0.0 1.7 0.00 0.00 0.00 47 1018.4
20260504040512 54 66 0.9 3.5 0.00 0.00 0.00 45 1018.3
20260504040032 54 66 0.9 3.5 0.00 0.00 0.00 46 1018.4
20260504035513 55 60 0.9 5.2 0.00 0.00 0.00 47 1018.6